Grosse Ile, MI

1:31 AM EST on February 08, 2016 (GMT -0500)
Grosse Ile Municipal

Weather History for KONZ - July, 2013

Change the Weather History Date:

Tuesday, July 16, 2013

  Actual Average (KDTW) Record (KDTW)
Temperature  
Mean Temperature 80 °F 74 °F  
Max Temperature 82 °F 84 °F 102 °F (1988)
Min Temperature 77 °F 64 °F 49 °F (1945)
Degree Days  
Heating Degree Days 0 0  
Month to date heating degree days 0  
Since 1 June heating degree days 35  
Since 1 July heating degree days 0  
Cooling Degree Days 14 9  
Month to date cooling degree days 141  
Year to date cooling degree days 356  
Since 1 June cooling degree days 308  
Growing Degree Days 30 (Base 50)    
Moisture  
Dew Point 76 °F    
Average Humidity 88    
Maximum Humidity 94    
Minimum Humidity 79    
Precipitation  
Precipitation 0.26 in 0.11 in 0.93 in (1988)
Month to date precipitation 1.65  
Year to date precipitation 17.71  
Snow  
Snow 0.00 in 0.00 in 0.00 in ()
Month to date snowfall 0.0  
Since 1 June snowfall 0.0  
Since 1 July snowfall 0.0  
Snow Depth -    
Sea Level Pressure  
Sea Level Pressure 30.28 in    
Wind  
Wind Speed 2 mph (South)    
Max Wind Speed 8 mph    
Max Gust Speed 9 mph    
Visibility 7 miles    
Events Rain    
T = Trace of Precipitation, MM = Missing Value Source: NWS Daily Summary

Daily Weather History Graph

Daily Weather History Graph

Search for Another Location

Airport or City:

Trip Planner

Search our weather history database for the weather conditions in past years. The results will help you decide how hot, cold, wet, or windy it might be!

Date:

Astronomy

Jul. 16, 2013 Rise Set
Actual Time 6:11 AM EDT 9:05 PM EDT
Civil Twilight 5:37 AM EDT 9:39 PM EDT
Nautical Twilight 4:55 AM EDT 10:21 PM EDT
Astronomical Twilight 4:06 AM EDT 11:10 PM EDT
Moon 2:43 PM EDT (7/16) 12:43 AM EDT (7/16)
Length of Visible Light 16h 01m
Length of Day
14h 54m
First Quarter, 56% of the Moon is Illuminated
Jul 16
First Quarter
Jul 22
Full
Jul 29
Last Quarter
Aug 6
New
Aug 14
First Quarter

Hourly Weather History & Observations

Time (EDT) Temp. Heat Index Dew Point Humidity Pressure Visibility Wind Dir Wind Speed Gust Speed Precip Events Conditions
12:14 AM 77.0 °F - 75.2 °F 94% 30.28 in 5.0 mi NE 3.5 mph - 0.03 in Rain Rain
12:34 AM 77.0 °F - 73.4 °F 89% 30.28 in 7.0 mi Calm Calm - 0.04 in Rain Light Rain
12:54 AM 77.0 °F - 73.4 °F 89% 30.28 in 7.0 mi Calm Calm - 0.04 in Rain Light Rain
1:14 AM 77.0 °F - 73.4 °F 89% 30.27 in 7.0 mi Calm Calm - N/A   Scattered Clouds
1:34 AM 77.0 °F - 73.4 °F 89% 30.26 in 7.0 mi Calm Calm - N/A   Clear
1:54 AM 77.0 °F - 75.2 °F 94% 30.25 in 7.0 mi Calm Calm - N/A   Clear
2:14 AM 77.0 °F - 75.2 °F 94% 30.25 in 5.0 mi Calm Calm - N/A   Mostly Cloudy
2:34 AM 77.0 °F - 75.2 °F 94% 30.26 in 4.0 mi SSW 3.5 mph - N/A   Overcast
2:54 AM 77.0 °F - 75.2 °F 94% 30.27 in 5.0 mi SW 3.5 mph - N/A   Overcast
3:14 AM 78.8 °F - 75.2 °F 89% 30.27 in 5.0 mi Calm Calm - N/A   Overcast
3:34 AM 77.0 °F - 75.2 °F 94% 30.27 in 5.0 mi Calm Calm - N/A   Overcast
3:54 AM 77.0 °F - 73.4 °F 89% 30.27 in 5.0 mi Calm Calm - N/A   Overcast
4:15 AM 77.0 °F - 75.2 °F 94% 30.27 in 7.0 mi Calm Calm - N/A   Overcast
4:34 AM 77.0 °F - 75.2 °F 94% 30.27 in 5.0 mi Calm Calm - N/A   Overcast
4:54 AM 77.0 °F - 75.2 °F 94% 30.27 in 5.0 mi Calm Calm - N/A   Overcast
5:15 AM 77.0 °F - 75.2 °F 94% 30.27 in 5.0 mi Calm Calm - N/A   Overcast
5:34 AM 77.0 °F - 75.2 °F 94% 30.27 in 4.0 mi Calm Calm - N/A   Overcast
5:54 AM 77.0 °F - 75.2 °F 94% 30.27 in 3.0 mi Calm Calm - N/A   Mostly Cloudy
6:14 AM 77.0 °F - 75.2 °F 94% 30.28 in 4.0 mi Calm Calm - N/A   Mostly Cloudy
6:34 AM 77.0 °F - 75.2 °F 94% 30.29 in 4.0 mi Calm Calm - N/A   Mostly Cloudy
6:55 AM 77.0 °F - 75.2 °F 94% 30.29 in 3.0 mi Calm Calm - 0.01 in   Overcast
7:14 AM 77.0 °F - 75.2 °F 94% 30.29 in 3.0 mi Calm Calm - N/A   Overcast
7:34 AM 78.8 °F - 75.2 °F 89% 30.29 in 1.8 mi East 3.5 mph - 0.01 in Rain Light Rain
7:54 AM 78.8 °F - 75.2 °F 89% 30.30 in 2.5 mi Calm Calm - 0.01 in   Scattered Clouds
8:14 AM 78.8 °F - 75.2 °F 89% 30.31 in 10.0 mi Calm Calm - N/A   Overcast
8:34 AM 78.8 °F - 75.2 °F 89% 30.31 in 7.0 mi Calm Calm - N/A   Overcast
8:54 AM 80.6 °F 86.2 °F 75.2 °F 84% 30.31 in 7.0 mi Calm Calm - N/A   Overcast
9:14 AM 80.6 °F 86.2 °F 75.2 °F 84% 30.31 in 5.0 mi Calm Calm - N/A   Mostly Cloudy
9:34 AM 80.6 °F 87.1 °F 77.0 °F 89% 30.32 in 7.0 mi South 3.5 mph - N/A   Mostly Cloudy
9:54 AM 80.6 °F 87.1 °F 77.0 °F 89% 30.31 in 5.0 mi Calm Calm - N/A   Scattered Clouds
10:14 AM 82.4 °F 90.9 °F 77.0 °F 84% 30.31 in 7.0 mi Calm Calm - N/A   Scattered Clouds
10:34 AM 82.4 °F 92.4 °F 78.8 °F 89% 30.31 in 7.0 mi South 5.8 mph - N/A   Mostly Cloudy
10:54 AM 82.4 °F 92.4 °F 78.8 °F 89% 30.31 in 7.0 mi SSE 3.5 mph - N/A   Mostly Cloudy
11:14 AM 82.4 °F 92.4 °F 78.8 °F 89% 30.31 in 7.0 mi Calm Calm - N/A   Mostly Cloudy
11:35 AM 82.4 °F 90.9 °F 77.0 °F 84% 30.30 in 7.0 mi ESE 4.6 mph - N/A   Mostly Cloudy
11:54 AM 80.6 °F 87.1 °F 77.0 °F 89% 30.31 in 10.0 mi SSE 5.8 mph - N/A   Mostly Cloudy
12:14 PM 80.6 °F 87.1 °F 77.0 °F 89% 30.30 in 7.0 mi SE 6.9 mph - N/A   Mostly Cloudy
12:34 PM 80.6 °F 86.2 °F 75.2 °F 84% 30.30 in 10.0 mi South 5.8 mph - N/A   Mostly Cloudy
12:54 PM 80.6 °F 86.2 °F 75.2 °F 84% 30.31 in 10.0 mi Calm Calm - N/A   Mostly Cloudy
1:14 PM 78.8 °F - 75.2 °F 89% 30.30 in 1.2 mi East 4.6 mph - 0.15 in Rain Heavy Rain
1:34 PM 78.8 °F - 73.4 °F 83% 30.30 in 10.0 mi South 5.8 mph 9.2 mph 0.20 in Rain Light Rain
1:54 PM 78.8 °F - 73.4 °F 83% 30.29 in 10.0 mi South 5.8 mph - 0.20 in Rain Light Rain
2:14 PM 78.8 °F - 73.4 °F 83% 30.29 in 10.0 mi South 8.1 mph - N/A   Clear
2:34 PM 78.8 °F - 75.2 °F 89% 30.28 in 10.0 mi South 8.1 mph - N/A   Clear
2:54 PM 80.6 °F 86.2 °F 75.2 °F 84% 30.29 in 10.0 mi SSW 8.1 mph - N/A   Scattered Clouds
3:14 PM 80.6 °F 86.2 °F 75.2 °F 84% 30.28 in 10.0 mi South 5.8 mph - N/A   Scattered Clouds
3:34 PM 80.6 °F 86.2 °F 75.2 °F 84% 30.28 in 10.0 mi South 3.5 mph - N/A   Scattered Clouds
3:54 PM 80.6 °F 86.2 °F 75.2 °F 84% 30.27 in 10.0 mi Calm Calm - N/A   Mostly Cloudy
4:14 PM 80.6 °F 86.2 °F 75.2 °F 84% 30.28 in 10.0 mi Calm Calm - N/A   Scattered Clouds
4:34 PM 82.4 °F 89.5 °F 75.2 °F 79% 30.27 in 10.0 mi Calm Calm - N/A   Scattered Clouds
4:54 PM 80.6 °F 86.2 °F 75.2 °F 84% 30.27 in 10.0 mi SSE 3.5 mph - N/A   Clear
5:14 PM 80.6 °F 86.2 °F 75.2 °F 84% 30.26 in 10.0 mi SSE 3.5 mph - N/A   Clear
5:34 PM 80.6 °F 87.1 °F 77.0 °F 89% 30.26 in 10.0 mi SSW 3.5 mph - N/A   Clear
5:54 PM 82.4 °F 90.9 °F 77.0 °F 84% 30.26 in 10.0 mi South 4.6 mph - N/A   Clear
6:15 PM 82.4 °F 90.9 °F 77.0 °F 84% 30.25 in 10.0 mi South 4.6 mph - N/A   Clear
6:34 PM 82.4 °F 90.9 °F 77.0 °F 84% 30.25 in 10.0 mi Calm Calm - N/A   Clear
6:54 PM 82.4 °F 92.4 °F 78.8 °F 89% 30.25 in 10.0 mi Calm Calm - N/A   Clear
7:14 PM 82.4 °F 90.9 °F 77.0 °F 84% 30.25 in 10.0 mi South 3.5 mph - N/A   Clear
7:34 PM 82.4 °F 90.9 °F 77.0 °F 84% 30.25 in 10.0 mi South 3.5 mph - N/A   Clear
7:55 PM 80.6 °F 87.1 °F 77.0 °F 89% 30.25 in 10.0 mi South 3.5 mph - N/A   Clear
8:14 PM 82.4 °F 90.9 °F 77.0 °F 84% 30.25 in 10.0 mi South 3.5 mph - N/A   Clear
8:34 PM 80.6 °F 87.1 °F 77.0 °F 89% 30.25 in 10.0 mi Calm Calm - N/A   Clear
8:54 PM 80.6 °F 87.1 °F 77.0 °F 89% 30.25 in 10.0 mi Calm Calm - N/A   Clear
9:14 PM 80.6 °F 87.1 °F 77.0 °F 89% 30.25 in 10.0 mi Calm Calm - N/A   Clear
9:34 PM 80.6 °F 86.2 °F 75.2 °F 84% 30.25 in 5.0 mi Calm Calm - N/A   Clear
9:54 PM 80.6 °F 86.2 °F 75.2 °F 84% 30.25 in 7.0 mi Calm Calm - N/A   Clear
10:14 PM 78.8 °F - 75.2 °F 89% 30.26 in 7.0 mi Calm Calm - N/A   Clear
10:34 PM 80.6 °F 86.2 °F 75.2 °F 84% 30.25 in 10.0 mi Calm Calm - N/A   Clear
10:54 PM 78.8 °F - 75.2 °F 89% 30.26 in 7.0 mi Calm Calm - N/A   Clear
11:14 PM 78.8 °F - 75.2 °F 89% 30.25 in 7.0 mi Calm Calm - N/A   Clear
11:34 PM 78.8 °F - 75.2 °F 89% 30.25 in 7.0 mi Calm Calm - N/A   Clear
11:54 PM 78.8 °F - 75.2 °F 89% 30.25 in 10.0 mi Calm Calm - N/A   Clear